• In France
  • List of Countries
  • For 7 days
  • Water Temperature
  • Satellite Maps
  • Weather Map
  • Weather Widgets
  • user-avatar
    Login

    Hourly Weather Inverclyde

    Today, 19 November, Sunday

    Time Temperature Precipitation Wind Pressure Humidity
    00:00 +2°C° 0 mm 3 mps 762 mmHg 88%
    01:00 +2°C° 0 mm 3 mps 763 mmHg 89%
    02:00 +2°C° 0 mm 3 mps 763 mmHg 89%
    03:00 +2°C° 0 mm 3 mps 763 mmHg 90%
    04:00 +2°C° 0 mm 3 mps 763 mmHg 90%
    05:00 +2°C° 0 mm 2 mps 763 mmHg 91%
    06:00 +2°C° 0 mm 2 mps 763 mmHg 92%
    07:00 +3°C° 0 mm 2 mps 764 mmHg 91%
    08:00 +3°C° 0 mm 2 mps 764 mmHg 91%
    09:00 +3°C° 0 mm 2 mps 764 mmHg 91%
    10:00 +4°C° 0 mm 2 mps 764 mmHg 87%
    11:00 +5°C° 0 mm 2 mps 764 mmHg 84%
    12:00 +5°C° 0 mm 2 mps 763 mmHg 79%
    13:00 +5°C° 0 mm 2 mps 763 mmHg 81%
    14:00 +6°C° 0 mm 1 mps 763 mmHg 82%
    15:00 +6°C° 0 mm 1 mps 762 mmHg 83%
    16:00 +5°C° 0.1 mm 1 mps 762 mmHg 84%
    17:00 +5°C° 0.1 mm 1 mps 762 mmHg 85%
    18:00 +5°C° 0.1 mm 1 mps 762 mmHg 85%
    19:00 +5°C° 0.4 mm 1 mps 761 mmHg 86%
    20:00 +5°C° 0.4 mm 1 mps 760 mmHg 87%
    21:00 +4°C° 0.4 mm 2 mps 759 mmHg 88%
    22:00 +4°C° 1.1 mm 2 mps 759 mmHg 89%
    23:00 +4°C° 1.1 mm 2 mps 758 mmHg 90%

    Tomorrow, 20 November, Monday

    Time Temperature Precipitation Wind Pressure Humidity
    00:00 +3°C° 1.1 mm 3 mps 757 mmHg 91%
    01:00 +3°C° 1.4 mm 3 mps 756 mmHg 92%
    02:00 +3°C° 1.4 mm 3 mps 755 mmHg 93%
    03:00 +3°C° 1.4 mm 3 mps 754 mmHg 94%
    04:00 +3°C° 1.2 mm 3 mps 753 mmHg 95%
    05:00 +3°C° 1.2 mm 3 mps 753 mmHg 95%
    06:00 +3°C° 1.2 mm 3 mps 752 mmHg 95%
    07:00 +3°C° 1.4 mm 3 mps 752 mmHg 96%
    08:00 +3°C° 1.4 mm 3 mps 752 mmHg 96%
    09:00 +3°C° 1.4 mm 3 mps 751 mmHg 96%
    10:00 +4°C° 0.4 mm 3 mps 752 mmHg 96%
    11:00 +4°C° 0.4 mm 3 mps 752 mmHg 96%
    12:00 +4°C° 0.4 mm 3 mps 752 mmHg 96%
    13:00 +4°C° 0.1 mm 3 mps 752 mmHg 96%
    14:00 +5°C° 0.1 mm 3 mps 753 mmHg 96%
    15:00 +5°C° 0.1 mm 3 mps 753 mmHg 96%
    16:00 +5°C° 0.1 mm 3 mps 754 mmHg 96%
    17:00 +4°C° 0.1 mm 3 mps 754 mmHg 96%
    18:00 +4°C° 0.1 mm 3 mps 754 mmHg 96%
    19:00 +4°C° 0.2 mm 3 mps 754 mmHg 95%
    20:00 +4°C° 0.2 mm 3 mps 755 mmHg 95%
    21:00 +4°C° 0.2 mm 3 mps 755 mmHg 95%
    22:00 +4°C° 0.4 mm 3 mps 755 mmHg 95%
    23:00 +4°C° 0.4 mm 3 mps 755 mmHg 95%

    Day after tomorrow, 21 November, Tuesday

    Time Temperature Precipitation Wind Pressure Humidity
    00:00 +4°C° 0.4 mm 4 mps 755 mmHg 95%
    01:00 +5°C° 0.7 mm 4 mps 754 mmHg 95%
    02:00 +5°C° 0.7 mm 4 mps 753 mmHg 95%
    03:00 +5°C° 0.7 mm 4 mps 753 mmHg 95%
    04:00 +5°C° 1.4 mm 4 mps 752 mmHg 96%
    05:00 +5°C° 1.4 mm 4 mps 751 mmHg 96%
    06:00 +5°C° 1.4 mm 3 mps 750 mmHg 96%
    07:00 +5°C° 1.7 mm 4 mps 749 mmHg 96%
    08:00 +5°C° 1.7 mm 4 mps 748 mmHg 96%
    09:00 +5°C° 1.7 mm 4 mps 748 mmHg 96%
    10:00 +6°C° 0.8 mm 4 mps 746 mmHg 96%
    11:00 +6°C° 0.8 mm 4 mps 745 mmHg 95%
    12:00 +7°C° 0.8 mm 4 mps 744 mmHg 95%
    13:00 +8°C° 0.6 mm 4 mps 742 mmHg 94%
    14:00 +9°C° 0.6 mm 5 mps 741 mmHg 94%
    15:00 +10°C° 0.6 mm 5 mps 740 mmHg 93%
    16:00 +10°C° 0.1 mm 5 mps 739 mmHg 92%
    17:00 +10°C° 0.1 mm 6 mps 738 mmHg 92%
    18:00 +10°C° 0.1 mm 6 mps 737 mmHg 91%
    19:00 +10°C° 0 mm 6 mps 737 mmHg 91%
    20:00 +10°C° 0 mm 6 mps 737 mmHg 91%
    21:00 +10°C° 0 mm 6 mps 737 mmHg 90%
    22:00 +10°C° 0 mm 6 mps 737 mmHg 90%
    23:00 +9°C° 0 mm 6 mps 737 mmHg 90%

    22 November, Wednesday

    Time Temperature Precipitation Wind Pressure Humidity
    00:00 +9°C° 0 mm 6 mps 738 mmHg 89%
    01:00 +8°C° 0 mm 6 mps 738 mmHg 90%
    02:00 +8°C° 0 mm 5 mps 738 mmHg 90%
    03:00 +8°C° 0 mm 4 mps 738 mmHg 91%
    04:00 +8°C° 0 mm 4 mps 738 mmHg 92%
    05:00 +8°C° 0 mm 3 mps 738 mmHg 93%
    06:00 +8°C° 0 mm 2 mps 739 mmHg 94%
    07:00 +8°C° 0.1 mm 2 mps 739 mmHg 94%
    08:00 +9°C° 0.1 mm 1 mps 739 mmHg 94%
    09:00 +9°C° 0.1 mm 1 mps 739 mmHg 95%
    10:00 +8°C° 0.2 mm 2 mps 739 mmHg 94%
    11:00 +8°C° 0.2 mm 2 mps 739 mmHg 94%
    12:00 +8°C° 0.2 mm 3 mps 739 mmHg 94%
    13:00 +8°C° 0.8 mm 3 mps 738 mmHg 94%
    14:00 +6°C° 0.8 mm 4 mps 738 mmHg 94%
    15:00 +6°C° 0.8 mm 5 mps 737 mmHg 94%
    16:00 +6°C° 1.4 mm 5 mps 736 mmHg 93%
    17:00 +5°C° 1.4 mm 5 mps 736 mmHg 93%
    18:00 +4°C° 1.4 mm 6 mps 735 mmHg 92%
    19:00 +4°C° 1.4 mm 6 mps 735 mmHg 92%
    20:00 +4°C° 1.4 mm 6 mps 735 mmHg 92%
    21:00 +4°C° 1.4 mm 6 mps 734 mmHg 92%
    22:00 +4°C° 2 mm 6 mps 734 mmHg 93%
    23:00 +5°C° 2 mm 5 mps 734 mmHg 93%

    23 November, Thursday

    Time Temperature Precipitation Wind Pressure Humidity
    00:00 +5°C° 2 mm 5 mps 734 mmHg 93%
    01:00 +5°C° 1.2 mm 5 mps 735 mmHg 93%
    02:00 +5°C° 1.2 mm 4 mps 736 mmHg 94%
    03:00 +6°C° 1.2 mm 4 mps 736 mmHg 94%
    04:00 +5°C° 0.5 mm 4 mps 737 mmHg 91%
    05:00 +5°C° 0.5 mm 4 mps 738 mmHg 89%
    06:00 +5°C° 0.5 mm 4 mps 739 mmHg 86%
    07:00 +5°C° 0 mm 4 mps 739 mmHg 86%
    08:00 +5°C° 0 mm 4 mps 740 mmHg 86%
    09:00 +5°C° 0 mm 3 mps 741 mmHg 86%
    10:00 +5°C° 0.1 mm 4 mps 741 mmHg 86%
    11:00 +5°C° 0.1 mm 4 mps 741 mmHg 86%
    12:00 +6°C° 0.1 mm 4 mps 742 mmHg 85%
    13:00 +6°C° 0.2 mm 4 mps 741 mmHg 87%
    14:00 +6°C° 0.2 mm 4 mps 740 mmHg 88%
    15:00 +6°C° 0.2 mm 4 mps 739 mmHg 89%
    16:00 +7°C° 0.1 mm 4 mps 739 mmHg 88%
    17:00 +7°C° 0.1 mm 5 mps 738 mmHg 87%
    18:00 +8°C° 0.1 mm 6 mps 738 mmHg 87%
    19:00 +8°C° 0.4 mm 6 mps 737 mmHg 88%
    20:00 +8°C° 0.4 mm 5 mps 737 mmHg 89%
    21:00 +8°C° 0.4 mm 5 mps 737 mmHg 90%
    22:00 +8°C° 0.2 mm 5 mps 737 mmHg 88%
    23:00 +7°C° 0.2 mm 6 mps 737 mmHg 87%

    24 November, Friday

    Time Temperature Precipitation Wind Pressure Humidity
    00:00 +7°C° 0.2 mm 6 mps 736 mmHg 85%
    01:00 +6°C° 0.2 mm 7 mps 736 mmHg 84%
    02:00 +6°C° 0.2 mm 7 mps 736 mmHg 83%
    03:00 +6°C° 0.2 mm 7 mps 735 mmHg 83%
    04:00 +6°C° 0.1 mm 7 mps 736 mmHg 82%
    05:00 +6°C° 0.1 mm 8 mps 736 mmHg 82%
    06:00 +6°C° 0.1 mm 8 mps 737 mmHg 82%
    07:00 +6°C° 0 mm 8 mps 738 mmHg 81%
    08:00 +6°C° 0 mm 8 mps 739 mmHg 81%
    09:00 +5°C° 0 mm 8 mps 739 mmHg 81%
    10:00 +6°C° 0.1 mm 8 mps 740 mmHg 79%
    11:00 +6°C° 0.1 mm 8 mps 741 mmHg 77%
    12:00 +6°C° 0.1 mm 8 mps 742 mmHg 76%
    13:00 +6°C° 0.2 mm 7 mps 742 mmHg 78%
    14:00 +5°C° 0.2 mm 7 mps 743 mmHg 80%
    15:00 +5°C° 0.2 mm 6 mps 744 mmHg 82%
    16:00 +5°C° 0.1 mm 5 mps 745 mmHg 84%
    17:00 +4°C° 0.1 mm 3 mps 746 mmHg 87%
    18:00 +4°C° 0.1 mm 2 mps 747 mmHg 90%
    19:00 +4°C° 0 mm 2 mps 748 mmHg 91%
    20:00 +4°C° 0 mm 2 mps 748 mmHg 92%
    21:00 +3°C° 0 mm 2 mps 749 mmHg 93%
    22:00 +4°C° 0 mm 1 mps 749 mmHg 92%
    23:00 +4°C° 0 mm 1 mps 749 mmHg 92%
    Show more